User: anonymous   Login
Location: Caltech
(34.1382°N, 118.1253°W)
Time: 18:52:57
(UTC-07:00)
Language:

AO-Echo - Orbit

View from above orbital plane
View from above orbital plane
View from above satellite
View from above satellite

Ground track
Ground track

The orbit data is extracted from the following two-line orbital elements,

1 28375U 04025K   17291.47230176 +.00000018 +00000-0 +18867-4 0  9999
2 28375 098.3645 222.3975 0081312 271.8479 087.3399 14.41858685699525
Epoch (UTC): 18 October 2017 11:20:06
Eccentricity: 0.0081312
inclination: 98.3645°
perigee height: 694 km
apogee height: 810 km
right ascension of ascending node: 222.3975°
argument of perigee: 271.8479°
revolutions per day: 14.41858685
mean anomaly at epoch: 87.3399°
orbit number at epoch: 69952

The dashed part of the orbit path shows where the satellite is in the earth's shadow,  

DLR